{"data":{"norad_id":41588,"epoch":"2026-05-24T22:57:54.717120Z","epoch_age_seconds":74679,"freshness":"FRESH","line1":"1 41588U 16038A   26144.95688330  .00000000  00000+0  00000+0 0  9991","line2":"2 41588   0.0160 290.5246 0001601  75.6348 295.5967  1.00267480 36475","mean_motion":1.0026748,"eccentricity":0.0001601,"inclination_deg":0.016,"raan_deg":290.5246,"arg_perigee_deg":75.6348,"mean_anomaly_deg":295.5967,"bstar":0,"rev_number":3647,"period_min":1436.1585630755,"perigee_km":35781.051085336,"apogee_km":35794.552618957,"semimajor_km":42165.938852147,"source":"CELESTRAK","updated_at":"2026-05-25T13:38:14.003533Z"}}